Home > Weather > Independence > Past weeks

Flag for USA Weather for the Past 2 Weeks in Independence, Missouri, USA

Now
53 °F

Light rain. Fog.


Feels Like: 48 °F
Forecast: 57 / 70 °F
Wind: 17 mph from Northeast

Location: Lee's Summit Municipal Airport

Current Time: Apr 29, 2016 at 8:53:47 PM

Latest Report: Apr 29, 2016 at 6:53 PM


Visibility: 6 mi

Pressure: 29.87 "Hg

Humidity: 93%

Dew Point: 51 °F

Location of IndependenceLocation

Historic Weather in Independence — Graph

°F

Independence Temperature Yesterday

Maximum temperature yesterday: 62 °F (at 3:53 PM)
Minimum temperature yesterday: 45 °F (at 5:53 AM)
Average temperature yesterday: 53 °F

High & Low Weather Summary for the Past Weeks

 TemperatureHumidityPressure
High79 °F (Apr 24, 2:53 PM)100% (Apr 20, 1:53 AM)30.23 "Hg (Apr 20, 1:53 AM)
Low45 °F (Apr 28, 5:53 AM)32% (Apr 14, 6:53 PM)29.44 "Hg (Apr 27, 4:53 AM)
Average62 °F73%29.94 "Hg
* Reported Apr 14 6:53 PM — Apr 29 6:53 PM, Independence, Weather by CustomWeather, © 2016

Note: Actual official high and low records may vary slightly from our data, if they occured in-between our weather recording intervals... More about our weather records

Advertising

Independence Weather History for the Previous 24 Hours

Scroll right to see more
 ConditionsComfort  
Time TempWeatherWind HumidityBarometerVisibility
6:53 PM
Fri, Apr 29
53 °FLight rain. Fog.17 mph93%29.87 "Hg6 mi
6:03 PM53 °FHeavy rain. Fog.14 mph89%29.92 "Hg2 mi
4:53 PM55 °FLight rain. Mostly cloudy.16 mph80%29.89 "Hg10 mi
3:53 PM55 °FOvercast.18 mph77%29.92 "Hg10 mi
2:53 PM55 °FOvercast.16 mph77%29.94 "Hg10 mi
1:53 PM56 °FPartly sunny.18 mph72%29.96 "Hg10 mi
12:53 PM57 °FOvercast.12 mph69%29.99 "Hg10 mi
11:53 AM55 °FOvercast.13 mph72%30.02 "Hg10 mi
10:53 AM53 °FMostly cloudy.15 mph74%30.03 "Hg10 mi
9:53 AM52 °FOvercast.14 mph77%30.03 "Hg10 mi
8:53 AM50 °FPartly sunny.13 mph80%30.06 "Hg10 mi
7:53 AM49 °FPartly sunny.9 mph84%30.05 "Hg10 mi
6:53 AM48 °FClear.9 mph86%30.02 "Hg10 mi
5:53 AM49 °FClear.10 mph84%30.02 "Hg10 mi
4:53 AM49 °FClear.8 mph84%30.03 "Hg10 mi
3:53 AM50 °FClear.9 mph83%30.07 "Hg10 mi
2:53 AM50 °FPassing clouds.6 mph86%30.09 "Hg10 mi
1:53 AM51 °FClear.5 mph83%30.09 "Hg10 mi
12:53 AM51 °FOvercast.7 mph83%30.07 "Hg10 mi
11:53 PM
Thu, Apr 28
50 °FPassing clouds.8 mph86%30.06 "Hg10 mi
10:53 PM50 °FClear.7 mph83%30.06 "Hg10 mi
9:53 PM50 °FClear.7 mph80%30.05 "Hg10 mi
8:53 PM52 °FSunny.7 mph77%30.03 "Hg10 mi
Weather by CustomWeather, © 2016

See weather overviewHow to use our weather pages